Year,Month,Day,Hour,Minute,Value (Times are PST for windspeed in km/hr)
2010,01,17,00,00,0.00
2010,01,17,00,01,0.10
2010,01,17,00,02,1.10
2010,01,17,00,03,0.10
2010,01,17,00,04,0.30
2010,01,17,00,05,0.20
2010,01,17,00,06,3.00
2010,01,17,00,07,1.00
2010,01,17,00,08,0.60
2010,01,17,00,09,1.70
2010,01,17,00,10,2.60
2010,01,17,00,11,2.40
2010,01,17,00,12,1.90
2010,01,17,00,13,2.40
2010,01,17,00,14,1.50
2010,01,17,00,15,2.30
2010,01,17,00,16,0.40
2010,01,17,00,17,0.60
2010,01,17,00,18,0.40
2010,01,17,00,19,0.10
2010,01,17,00,20,0.10
2010,01,17,00,21,0.00
2010,01,17,00,22,0.50
2010,01,17,00,23,0.20
2010,01,17,00,24,0.00
2010,01,17,00,25,0.10
2010,01,17,00,26,0.20
2010,01,17,00,27,3.10
2010,01,17,00,28,3.70
2010,01,17,00,29,2.40
2010,01,17,00,30,0.70
2010,01,17,00,31,3.20
2010,01,17,00,32,5.50
2010,01,17,00,33,3.70
2010,01,17,00,34,5.20
2010,01,17,00,35,3.70
2010,01,17,00,36,0.70
2010,01,17,00,37,4.90
2010,01,17,00,38,5.60
2010,01,17,00,39,3.90
2010,01,17,00,40,2.60
2010,01,17,00,41,0.90
2010,01,17,00,42,4.10
2010,01,17,00,43,6.30
2010,01,17,00,44,4.10
2010,01,17,00,45,4.40
2010,01,17,00,46,4.50
2010,01,17,00,47,3.30
2010,01,17,00,48,2.00
2010,01,17,00,49,2.00
2010,01,17,00,50,3.40
2010,01,17,00,51,2.80
2010,01,17,00,52,3.90
2010,01,17,00,53,4.20
2010,01,17,00,54,4.90
2010,01,17,00,55,7.00
2010,01,17,00,56,6.00
2010,01,17,00,57,8.30
2010,01,17,00,58,5.00
2010,01,17,00,59,1.70
2010,01,17,01,00,4.20
2010,01,17,01,01,5.40
2010,01,17,01,02,2.90
2010,01,17,01,03,1.90
2010,01,17,01,04,0.40
2010,01,17,01,05,1.00
2010,01,17,01,06,0.20
2010,01,17,01,07,3.70
2010,01,17,01,08,0.50
2010,01,17,01,09,3.60
2010,01,17,01,10,3.80
2010,01,17,01,11,1.80
2010,01,17,01,12,0.10
2010,01,17,01,13,0.00
2010,01,17,01,14,0.30
2010,01,17,01,15,1.10
2010,01,17,01,16,4.20
2010,01,17,01,17,1.50
2010,01,17,01,18,6.00
2010,01,17,01,19,6.20
2010,01,17,01,20,5.30
2010,01,17,01,21,5.40
2010,01,17,01,22,4.90
2010,01,17,01,23,4.70
2010,01,17,01,24,5.60
2010,01,17,01,25,6.80
2010,01,17,01,26,5.80
2010,01,17,01,27,4.00
2010,01,17,01,28,7.10
2010,01,17,01,29,5.70
2010,01,17,01,30,7.10
2010,01,17,01,31,8.20
2010,01,17,01,32,8.20
2010,01,17,01,33,5.30
2010,01,17,01,34,8.50
2010,01,17,01,35,7.80
2010,01,17,01,36,6.30
2010,01,17,01,37,4.90
2010,01,17,01,38,4.20
2010,01,17,01,39,5.70
2010,01,17,01,40,5.50
2010,01,17,01,41,4.50
2010,01,17,01,42,5.60
2010,01,17,01,43,4.90
2010,01,17,01,44,6.40
2010,01,17,01,45,6.40
2010,01,17,01,46,5.10
2010,01,17,01,47,4.60
2010,01,17,01,48,4.20
2010,01,17,01,49,5.10
2010,01,17,01,50,4.40
2010,01,17,01,51,6.30
2010,01,17,01,52,3.60
2010,01,17,01,53,2.70
2010,01,17,01,54,4.30
2010,01,17,01,55,5.30
2010,01,17,01,56,6.60
2010,01,17,01,57,6.80
2010,01,17,01,58,6.00
2010,01,17,01,59,10.10
2010,01,17,02,00,9.00
2010,01,17,02,01,5.90
2010,01,17,02,02,7.70
2010,01,17,02,03,8.60
2010,01,17,02,04,11.60
2010,01,17,02,05,8.80
2010,01,17,02,06,10.70
2010,01,17,02,07,7.20
2010,01,17,02,08,8.90
2010,01,17,02,09,5.90
2010,01,17,02,10,10.20
2010,01,17,02,11,7.10
2010,01,17,02,12,5.60
2010,01,17,02,13,8.10
2010,01,17,02,14,7.20
2010,01,17,02,15,7.10
2010,01,17,02,16,9.30
2010,01,17,02,17,8.40
2010,01,17,02,18,5.40
2010,01,17,02,19,9.00
2010,01,17,02,20,7.30
2010,01,17,02,21,9.00
2010,01,17,02,22,7.50
2010,01,17,02,23,7.90
2010,01,17,02,24,5.40
2010,01,17,02,25,7.20
2010,01,17,02,26,4.90
2010,01,17,02,27,5.10
2010,01,17,02,28,7.60
2010,01,17,02,29,5.10
2010,01,17,02,30,3.00
2010,01,17,02,31,7.70
2010,01,17,02,32,4.10
2010,01,17,02,33,2.70
2010,01,17,02,34,0.60
2010,01,17,02,35,0.60
2010,01,17,02,36,1.30
2010,01,17,02,37,0.70
2010,01,17,02,38,0.20
2010,01,17,02,39,2.60
2010,01,17,02,40,1.90
2010,01,17,02,41,2.30
2010,01,17,02,42,1.10
2010,01,17,02,43,1.90
2010,01,17,02,44,0.20
2010,01,17,02,45,3.70
2010,01,17,02,46,2.20
2010,01,17,02,47,3.80
2010,01,17,02,48,4.30
2010,01,17,02,49,1.90
2010,01,17,02,50,5.90
2010,01,17,02,51,3.20
2010,01,17,02,52,4.10
2010,01,17,02,53,5.10
2010,01,17,02,54,6.50
2010,01,17,02,55,5.30
2010,01,17,02,56,4.50
2010,01,17,02,57,5.70
2010,01,17,02,58,6.00
2010,01,17,02,59,5.90
2010,01,17,03,00,4.50
2010,01,17,03,01,2.80
2010,01,17,03,02,8.00
2010,01,17,03,03,9.00
2010,01,17,03,04,9.00
2010,01,17,03,05,7.80
2010,01,17,03,06,10.90
2010,01,17,03,07,6.40
2010,01,17,03,08,7.40
2010,01,17,03,09,8.20
2010,01,17,03,10,7.60
2010,01,17,03,11,7.90
2010,01,17,03,12,7.30
2010,01,17,03,13,6.70
2010,01,17,03,14,10.30
2010,01,17,03,15,7.80
2010,01,17,03,16,12.00
2010,01,17,03,17,9.10
2010,01,17,03,18,7.90
2010,01,17,03,19,7.20
2010,01,17,03,20,7.40
2010,01,17,03,21,7.80
2010,01,17,03,22,17.60
2010,01,17,03,23,14.70
2010,01,17,03,24,15.70
2010,01,17,03,25,8.60
2010,01,17,03,26,10.90
2010,01,17,03,27,8.80
2010,01,17,03,28,9.70
2010,01,17,03,29,11.30
2010,01,17,03,30,14.70
2010,01,17,03,31,14.30
2010,01,17,03,32,10.60
2010,01,17,03,33,9.20
2010,01,17,03,34,11.30
2010,01,17,03,35,9.00
2010,01,17,03,36,8.20
2010,01,17,03,37,11.00
2010,01,17,03,38,9.40
2010,01,17,03,39,12.90
2010,01,17,03,40,15.40
2010,01,17,03,41,13.70
2010,01,17,03,42,9.30
2010,01,17,03,43,10.10
2010,01,17,03,44,12.20
2010,01,17,03,45,11.80
2010,01,17,03,46,9.40
2010,01,17,03,47,10.40
2010,01,17,03,48,10.90
2010,01,17,03,49,11.30
2010,01,17,03,50,9.00
2010,01,17,03,51,10.60
2010,01,17,03,52,9.00
2010,01,17,03,53,12.00
2010,01,17,03,54,7.40
2010,01,17,03,55,7.60
2010,01,17,03,56,9.00
2010,01,17,03,57,9.00
2010,01,17,03,58,8.00
2010,01,17,03,59,10.10
2010,01,17,04,00,8.00
2010,01,17,04,01,7.60
2010,01,17,04,02,11.50
2010,01,17,04,03,11.30
2010,01,17,04,04,10.50
2010,01,17,04,05,9.30
2010,01,17,04,06,9.80
2010,01,17,04,07,6.20
2010,01,17,04,08,6.50
2010,01,17,04,09,6.00
2010,01,17,04,10,4.70
2010,01,17,04,11,6.50
2010,01,17,04,12,7.70
2010,01,17,04,13,7.20
2010,01,17,04,14,6.70
2010,01,17,04,15,7.00
2010,01,17,04,16,8.90
2010,01,17,04,17,7.70
2010,01,17,04,18,5.10
2010,01,17,04,19,5.30
2010,01,17,04,20,8.50
2010,01,17,04,21,8.30
2010,01,17,04,22,13.60
2010,01,17,04,23,13.40
2010,01,17,04,24,14.10
2010,01,17,04,25,11.20
2010,01,17,04,26,12.80
2010,01,17,04,27,8.10
2010,01,17,04,28,13.20
2010,01,17,04,29,10.30
2010,01,17,04,30,10.10
2010,01,17,04,31,9.40
2010,01,17,04,32,12.10
2010,01,17,04,33,10.70
2010,01,17,04,34,12.20
2010,01,17,04,35,11.90
2010,01,17,04,36,9.20
2010,01,17,04,37,12.20
2010,01,17,04,38,11.20
2010,01,17,04,39,12.20
2010,01,17,04,40,13.00
2010,01,17,04,41,13.50
2010,01,17,04,42,11.20
2010,01,17,04,43,9.20
2010,01,17,04,44,7.70
2010,01,17,04,45,11.00
2010,01,17,04,46,11.60
2010,01,17,04,47,10.70
2010,01,17,04,48,11.40
2010,01,17,04,49,9.70
2010,01,17,04,50,8.30
2010,01,17,04,51,8.00
2010,01,17,04,52,9.30
2010,01,17,04,53,10.30
2010,01,17,04,54,7.30
2010,01,17,04,55,9.50
2010,01,17,04,56,11.60
2010,01,17,04,57,9.70
2010,01,17,04,58,6.90
2010,01,17,04,59,6.80
2010,01,17,05,00,8.20
2010,01,17,05,01,7.10
2010,01,17,05,02,7.20
2010,01,17,05,03,9.60
2010,01,17,05,04,8.60
2010,01,17,05,05,10.90
2010,01,17,05,06,10.10
2010,01,17,05,07,8.80
2010,01,17,05,08,6.60
2010,01,17,05,09,9.70
2010,01,17,05,10,7.00
2010,01,17,05,11,8.70
2010,01,17,05,12,8.80
2010,01,17,05,13,11.10
2010,01,17,05,14,10.80
2010,01,17,05,15,7.40
2010,01,17,05,16,10.40
2010,01,17,05,17,8.10
2010,01,17,05,18,10.00
2010,01,17,05,19,10.60
2010,01,17,05,20,9.70
2010,01,17,05,21,8.40
2010,01,17,05,22,6.40
2010,01,17,05,23,7.10
2010,01,17,05,24,10.90
2010,01,17,05,25,9.00
2010,01,17,05,26,9.00
2010,01,17,05,27,8.10
2010,01,17,05,28,10.10
2010,01,17,05,29,6.80
2010,01,17,05,30,9.30
2010,01,17,05,31,5.60
2010,01,17,05,32,8.50
2010,01,17,05,33,5.90
2010,01,17,05,34,5.90
2010,01,17,05,35,5.10
2010,01,17,05,36,4.40
2010,01,17,05,37,7.20
2010,01,17,05,38,6.00
2010,01,17,05,39,3.90
2010,01,17,05,40,7.40
2010,01,17,05,41,6.10
2010,01,17,05,42,3.30
2010,01,17,05,43,4.70
2010,01,17,05,44,4.60
2010,01,17,05,45,6.90
2010,01,17,05,46,5.10
2010,01,17,05,47,5.00
2010,01,17,05,48,5.50
2010,01,17,05,49,4.70
2010,01,17,05,50,1.50
2010,01,17,05,51,4.30
2010,01,17,05,52,4.70
2010,01,17,05,53,1.70
2010,01,17,05,54,5.30
2010,01,17,05,55,4.40
2010,01,17,05,56,2.90
2010,01,17,05,57,3.50
2010,01,17,05,58,2.90
2010,01,17,05,59,4.30
2010,01,17,06,00,3.60
2010,01,17,06,01,2.50
2010,01,17,06,02,3.00
2010,01,17,06,03,2.00
2010,01,17,06,04,2.80
2010,01,17,06,05,1.90
2010,01,17,06,06,4.20
2010,01,17,06,07,4.40
2010,01,17,06,08,2.50
2010,01,17,06,09,1.40
2010,01,17,06,10,5.20
2010,01,17,06,11,2.40
2010,01,17,06,12,9.20
2010,01,17,06,13,8.30
2010,01,17,06,14,4.50
2010,01,17,06,15,4.50
2010,01,17,06,16,1.90
2010,01,17,06,17,4.40
2010,01,17,06,18,7.20
2010,01,17,06,19,5.10
2010,01,17,06,20,5.60
2010,01,17,06,21,3.40
2010,01,17,06,22,4.40
2010,01,17,06,23,4.90
2010,01,17,06,24,4.70
2010,01,17,06,25,2.80
2010,01,17,06,26,3.30
2010,01,17,06,27,4.30
2010,01,17,06,28,2.80
2010,01,17,06,29,4.70
2010,01,17,06,30,0.50
2010,01,17,06,31,0.00
2010,01,17,06,32,0.00
2010,01,17,06,33,0.10
2010,01,17,06,34,1.20
2010,01,17,06,35,2.50
2010,01,17,06,36,2.80
2010,01,17,06,37,0.60
2010,01,17,06,38,0.20
2010,01,17,06,39,3.90
2010,01,17,06,40,1.70
2010,01,17,06,41,0.80
2010,01,17,06,42,1.40
2010,01,17,06,43,1.00
2010,01,17,06,44,0.00
2010,01,17,06,45,0.00
2010,01,17,06,46,1.10
2010,01,17,06,47,1.00
2010,01,17,06,48,0.00
2010,01,17,06,49,0.00
2010,01,17,06,50,1.80
2010,01,17,06,51,0.70
2010,01,17,06,52,0.50
2010,01,17,06,53,0.10
2010,01,17,06,54,0.00
2010,01,17,06,55,1.40
2010,01,17,06,56,0.70
2010,01,17,06,57,0.00
2010,01,17,06,58,0.00
2010,01,17,06,59,0.00
2010,01,17,07,00,0.00
2010,01,17,07,01,0.10
2010,01,17,07,02,0.10
2010,01,17,07,03,0.00
2010,01,17,07,04,0.00
2010,01,17,07,05,0.10
2010,01,17,07,06,0.20
2010,01,17,07,07,0.20
2010,01,17,07,08,0.00
2010,01,17,07,09,0.20
2010,01,17,07,10,1.10
2010,01,17,07,11,2.00
2010,01,17,07,12,3.10
2010,01,17,07,13,4.70
2010,01,17,07,14,2.20
2010,01,17,07,15,1.00
2010,01,17,07,16,0.10
2010,01,17,07,17,0.40
2010,01,17,07,18,2.00
2010,01,17,07,19,1.40
2010,01,17,07,20,1.60
2010,01,17,07,21,2.10
2010,01,17,07,22,4.50
2010,01,17,07,23,5.60
2010,01,17,07,24,4.90
2010,01,17,07,25,4.40
2010,01,17,07,26,4.30
2010,01,17,07,27,4.10
2010,01,17,07,28,4.50
2010,01,17,07,29,3.80
2010,01,17,07,30,3.20
2010,01,17,07,31,3.80
2010,01,17,07,32,3.60
2010,01,17,07,33,2.90
2010,01,17,07,34,4.40
2010,01,17,07,35,5.10
2010,01,17,07,36,4.90
2010,01,17,07,37,3.80
2010,01,17,07,38,6.40
2010,01,17,07,39,5.20
2010,01,17,07,40,4.40
2010,01,17,07,41,5.20
2010,01,17,07,42,4.40
2010,01,17,07,43,3.90
2010,01,17,07,44,4.50
2010,01,17,07,45,5.70
2010,01,17,07,46,3.90
2010,01,17,07,47,5.10
2010,01,17,07,48,5.40
2010,01,17,07,49,5.10
2010,01,17,07,50,4.90
2010,01,17,07,51,5.50
2010,01,17,07,52,6.70
2010,01,17,07,53,7.40
2010,01,17,07,54,6.60
2010,01,17,07,55,7.70
2010,01,17,07,56,3.20
2010,01,17,07,57,3.00
2010,01,17,07,58,4.80
2010,01,17,07,59,5.30
2010,01,17,08,00,7.40
2010,01,17,08,01,6.60
2010,01,17,08,02,6.40
2010,01,17,08,03,1.00
2010,01,17,08,04,3.10
2010,01,17,08,05,3.70
2010,01,17,08,06,2.70
2010,01,17,08,07,2.90
2010,01,17,08,08,3.20
2010,01,17,08,09,3.00
2010,01,17,08,10,5.80
2010,01,17,08,11,8.50
2010,01,17,08,12,4.10
2010,01,17,08,13,8.80
2010,01,17,08,14,5.80
2010,01,17,08,15,6.80
2010,01,17,08,16,6.40
2010,01,17,08,17,8.30
2010,01,17,08,18,6.00
2010,01,17,08,19,7.10
2010,01,17,08,20,4.70
2010,01,17,08,21,4.70
2010,01,17,08,22,4.70
2010,01,17,08,23,5.70
2010,01,17,08,24,2.50
2010,01,17,08,25,4.10
2010,01,17,08,26,4.10
2010,01,17,08,27,3.50
2010,01,17,08,28,4.70
2010,01,17,08,29,4.90
2010,01,17,08,30,3.10
2010,01,17,08,31,4.30
2010,01,17,08,32,2.90
2010,01,17,08,33,4.50
2010,01,17,08,34,6.00
2010,01,17,08,35,2.50
2010,01,17,08,36,7.90
2010,01,17,08,37,5.40
2010,01,17,08,38,3.20
2010,01,17,08,39,5.80
2010,01,17,08,40,6.40
2010,01,17,08,41,3.80
2010,01,17,08,42,6.40
2010,01,17,08,43,7.70
2010,01,17,08,44,7.00
2010,01,17,08,45,3.10
2010,01,17,08,46,1.50
2010,01,17,08,47,6.60
2010,01,17,08,48,8.50
2010,01,17,08,49,2.70
2010,01,17,08,50,3.90
2010,01,17,08,51,3.50
2010,01,17,08,52,6.10
2010,01,17,08,53,3.10
2010,01,17,08,54,5.20
2010,01,17,08,55,6.70
2010,01,17,08,56,2.80
2010,01,17,08,57,2.70
2010,01,17,08,58,2.40
2010,01,17,08,59,4.80
2010,01,17,09,00,2.80
2010,01,17,09,01,1.10
2010,01,17,09,02,0.70
2010,01,17,09,03,8.30
2010,01,17,09,04,3.00
2010,01,17,09,05,0.70
2010,01,17,09,06,3.90
2010,01,17,09,07,3.80
2010,01,17,09,08,2.60
2010,01,17,09,09,0.00
2010,01,17,09,10,1.20
2010,01,17,09,11,2.90
2010,01,17,09,12,3.10
2010,01,17,09,13,2.60
2010,01,17,09,14,3.20
2010,01,17,09,15,2.00
2010,01,17,09,16,2.00
2010,01,17,09,17,4.30
2010,01,17,09,18,2.50
2010,01,17,09,19,3.40
2010,01,17,09,20,1.20
2010,01,17,09,21,2.30
2010,01,17,09,22,2.20
2010,01,17,09,23,1.00
2010,01,17,09,24,2.20
2010,01,17,09,25,5.60
2010,01,17,09,26,10.10
2010,01,17,09,27,3.10
2010,01,17,09,28,1.30
2010,01,17,09,29,0.30
2010,01,17,09,30,0.10
2010,01,17,09,31,2.20
2010,01,17,09,32,3.40
2010,01,17,09,33,0.60
2010,01,17,09,34,0.50
2010,01,17,09,35,0.10
2010,01,17,09,36,0.00
2010,01,17,09,37,0.00
2010,01,17,09,38,0.00
2010,01,17,09,39,0.10
2010,01,17,09,40,1.20
2010,01,17,09,41,1.30
2010,01,17,09,42,0.30
2010,01,17,09,43,0.00
2010,01,17,09,44,0.00
2010,01,17,09,45,1.20
2010,01,17,09,46,1.70
2010,01,17,09,47,3.30
2010,01,17,09,48,5.00
2010,01,17,09,49,3.60
2010,01,17,09,50,3.40
2010,01,17,09,51,7.50
2010,01,17,09,52,6.50
2010,01,17,09,53,4.80
2010,01,17,09,54,4.10
2010,01,17,09,55,6.40
2010,01,17,09,56,10.40
2010,01,17,09,57,9.00
2010,01,17,09,58,5.40
2010,01,17,09,59,5.20
2010,01,17,10,00,6.40
2010,01,17,10,01,5.10
2010,01,17,10,02,2.50
2010,01,17,10,03,8.10
2010,01,17,10,04,6.70
2010,01,17,10,05,4.90
2010,01,17,10,06,3.70
2010,01,17,10,07,3.70
2010,01,17,10,08,3.60
2010,01,17,10,09,2.80
2010,01,17,10,10,2.00
2010,01,17,10,11,2.10
2010,01,17,10,12,2.80
2010,01,17,10,13,5.10
2010,01,17,10,14,3.80
2010,01,17,10,15,1.70
2010,01,17,10,16,2.20
2010,01,17,10,17,4.90
2010,01,17,10,18,2.20
2010,01,17,10,19,2.90
2010,01,17,10,20,4.30
2010,01,17,10,21,6.30
2010,01,17,10,22,7.80
2010,01,17,10,23,5.20
2010,01,17,10,24,4.00
2010,01,17,10,25,1.90
2010,01,17,10,26,0.80
2010,01,17,10,27,2.00
2010,01,17,10,28,1.90
2010,01,17,10,29,1.10
2010,01,17,10,30,2.00
2010,01,17,10,31,1.20
2010,01,17,10,32,3.00
2010,01,17,10,33,2.00
2010,01,17,10,34,2.10
2010,01,17,10,35,1.10
2010,01,17,10,36,0.20
2010,01,17,10,37,0.80
2010,01,17,10,38,0.00
2010,01,17,10,39,0.60
2010,01,17,10,40,0.30
2010,01,17,10,41,0.00
2010,01,17,10,42,0.00
2010,01,17,10,43,0.30
2010,01,17,10,44,0.00
2010,01,17,10,45,0.40
2010,01,17,10,46,0.60
2010,01,17,10,47,2.20
2010,01,17,10,48,1.50
2010,01,17,10,49,0.30
2010,01,17,10,50,0.10
2010,01,17,10,51,1.20
2010,01,17,10,52,0.20
2010,01,17,10,53,0.40
2010,01,17,10,54,1.80
2010,01,17,10,55,0.90
2010,01,17,10,56,2.50
2010,01,17,10,57,1.90
2010,01,17,10,58,0.00
2010,01,17,10,59,0.00
2010,01,17,11,00,0.00
2010,01,17,11,01,0.00
2010,01,17,11,02,0.00
2010,01,17,11,03,0.00
2010,01,17,11,04,1.30
2010,01,17,11,05,2.10
2010,01,17,11,06,0.40
2010,01,17,11,07,0.00
2010,01,17,11,08,0.00
2010,01,17,11,09,0.00
2010,01,17,11,10,0.80
2010,01,17,11,11,0.20
2010,01,17,11,12,0.30
2010,01,17,11,13,0.00
2010,01,17,11,14,0.00
2010,01,17,11,15,0.40
2010,01,17,11,16,0.70
2010,01,17,11,17,0.00
2010,01,17,11,18,0.20
2010,01,17,11,19,0.20
2010,01,17,11,20,0.60
2010,01,17,11,21,1.30
2010,01,17,11,22,3.70
2010,01,17,11,23,3.80
2010,01,17,11,24,10.80
2010,01,17,11,25,10.00
2010,01,17,11,26,7.30
2010,01,17,11,27,7.80
2010,01,17,11,28,6.50
2010,01,17,11,29,6.20
2010,01,17,11,30,6.80
2010,01,17,11,31,7.70
2010,01,17,11,32,7.20
2010,01,17,11,33,5.30
2010,01,17,11,34,8.50
2010,01,17,11,35,8.10
2010,01,17,11,36,6.80
2010,01,17,11,37,6.40
2010,01,17,11,38,5.90
2010,01,17,11,39,6.80
2010,01,17,11,40,6.50
2010,01,17,11,41,4.00
2010,01,17,11,42,5.40
2010,01,17,11,43,5.70
2010,01,17,11,44,5.90
2010,01,17,11,45,3.80
2010,01,17,11,46,5.80
2010,01,17,11,47,7.50
2010,01,17,11,48,3.70
2010,01,17,11,49,4.80
2010,01,17,11,50,4.60
2010,01,17,11,51,6.80
2010,01,17,11,52,6.00
2010,01,17,11,53,6.00
2010,01,17,11,54,4.90
2010,01,17,11,55,6.00
2010,01,17,11,56,4.80
2010,01,17,11,57,1.00
2010,01,17,11,58,4.10
2010,01,17,11,59,4.90
2010,01,17,12,00,3.10
2010,01,17,12,01,5.20
2010,01,17,12,02,2.70
2010,01,17,12,03,4.10
2010,01,17,12,04,3.80
2010,01,17,12,05,2.20
2010,01,17,12,06,0.40
2010,01,17,12,07,0.10
2010,01,17,12,08,2.40
2010,01,17,12,09,2.60
2010,01,17,12,10,2.40
2010,01,17,12,11,4.60
2010,01,17,12,12,4.30
2010,01,17,12,13,3.30
2010,01,17,12,14,3.90
2010,01,17,12,15,3.40
2010,01,17,12,16,4.70
2010,01,17,12,17,1.20
2010,01,17,12,18,1.10
2010,01,17,12,19,1.90
2010,01,17,12,20,1.50
2010,01,17,12,21,1.90
2010,01,17,12,22,0.40
2010,01,17,12,23,0.20
2010,01,17,12,24,4.60
2010,01,17,12,25,3.10
2010,01,17,12,26,3.60
2010,01,17,12,27,1.50
2010,01,17,12,28,2.90
2010,01,17,12,29,5.70
2010,01,17,12,30,4.40
2010,01,17,12,31,3.00
2010,01,17,12,32,3.70
2010,01,17,12,33,3.50
2010,01,17,12,34,5.50
2010,01,17,12,35,5.70
2010,01,17,12,36,5.20
2010,01,17,12,37,5.10
2010,01,17,12,38,5.80
2010,01,17,12,39,7.40
2010,01,17,12,40,2.60
2010,01,17,12,41,4.20
2010,01,17,12,42,3.40
2010,01,17,12,43,3.80
2010,01,17,12,44,4.10
2010,01,17,12,45,5.90
2010,01,17,12,46,3.70
2010,01,17,12,47,6.80
2010,01,17,12,48,6.00
2010,01,17,12,49,5.50
2010,01,17,12,50,7.10
2010,01,17,12,51,6.00
2010,01,17,12,52,5.30
2010,01,17,12,53,5.70
2010,01,17,12,54,3.50
2010,01,17,12,55,5.50
2010,01,17,12,56,7.20
2010,01,17,12,57,7.30
2010,01,17,12,58,9.40
2010,01,17,12,59,12.20
2010,01,17,13,00,9.00
2010,01,17,13,01,9.10
2010,01,17,13,02,7.60
2010,01,17,13,03,6.40
2010,01,17,13,04,8.40
2010,01,17,13,05,6.20
2010,01,17,13,06,10.00
2010,01,17,13,07,7.90
2010,01,17,13,08,7.90
2010,01,17,13,09,6.90
2010,01,17,13,10,7.10
2010,01,17,13,11,10.40
2010,01,17,13,12,9.50
2010,01,17,13,13,7.80
2010,01,17,13,14,9.40
2010,01,17,13,15,12.40
2010,01,17,13,16,11.00
2010,01,17,13,17,12.50
2010,01,17,13,18,14.60
2010,01,17,13,19,8.80
2010,01,17,13,20,11.30
2010,01,17,13,21,7.30
2010,01,17,13,22,9.70
2010,01,17,13,23,13.50
2010,01,17,13,24,13.90
2010,01,17,13,25,11.30
2010,01,17,13,26,13.80
2010,01,17,13,27,12.30
2010,01,17,13,28,12.40
2010,01,17,13,29,13.00
2010,01,17,13,30,12.50
2010,01,17,13,31,12.50
2010,01,17,13,32,15.50
2010,01,17,13,33,14.60
2010,01,17,13,34,11.80
2010,01,17,13,35,12.90
2010,01,17,13,36,10.40
2010,01,17,13,37,10.60
2010,01,17,13,38,12.90
2010,01,17,13,39,11.30
2010,01,17,13,40,9.20
2010,01,17,13,41,13.00
2010,01,17,13,42,9.40
2010,01,17,13,43,9.00
2010,01,17,13,44,11.10
2010,01,17,13,45,8.50
2010,01,17,13,46,6.80
2010,01,17,13,47,6.60
2010,01,17,13,48,7.90
2010,01,17,13,49,7.90
2010,01,17,13,50,5.50
2010,01,17,13,51,6.90
2010,01,17,13,52,6.60
2010,01,17,13,53,7.60
2010,01,17,13,54,8.00
2010,01,17,13,55,6.50
2010,01,17,13,56,4.20
2010,01,17,13,57,6.00
2010,01,17,13,58,6.30
2010,01,17,13,59,4.10
2010,01,17,14,00,5.50
2010,01,17,14,01,5.00
2010,01,17,14,02,8.10
2010,01,17,14,03,6.30
2010,01,17,14,04,6.00
2010,01,17,14,05,6.20
2010,01,17,14,06,4.40
2010,01,17,14,07,5.60
2010,01,17,14,08,7.30
2010,01,17,14,09,6.30
2010,01,17,14,10,3.90
2010,01,17,14,11,3.90
2010,01,17,14,12,3.30
2010,01,17,14,13,2.50
2010,01,17,14,14,2.10
2010,01,17,14,15,3.70
2010,01,17,14,16,4.20
2010,01,17,14,17,5.70
2010,01,17,14,18,3.50
2010,01,17,14,19,3.60
2010,01,17,14,20,5.40
2010,01,17,14,21,3.20
2010,01,17,14,22,3.10
2010,01,17,14,23,6.10
2010,01,17,14,24,6.00
2010,01,17,14,25,3.40
2010,01,17,14,26,4.80
2010,01,17,14,27,6.30
2010,01,17,14,28,5.90
2010,01,17,14,29,4.80
2010,01,17,14,30,3.40
2010,01,17,14,31,3.10
2010,01,17,14,32,2.90
2010,01,17,14,33,3.50
2010,01,17,14,34,3.00
2010,01,17,14,35,1.80
2010,01,17,14,36,6.00
2010,01,17,14,37,5.30
2010,01,17,14,38,2.80
2010,01,17,14,39,1.70
2010,01,17,14,40,1.60
2010,01,17,14,41,3.40
2010,01,17,14,42,2.60
2010,01,17,14,43,2.20
2010,01,17,14,44,2.30
2010,01,17,14,45,1.70
2010,01,17,14,46,1.10
2010,01,17,14,47,0.60
2010,01,17,14,48,0.30
2010,01,17,14,49,2.60
2010,01,17,14,50,1.20
2010,01,17,14,51,2.90
2010,01,17,14,52,5.70
2010,01,17,14,53,5.50
2010,01,17,14,54,3.90
2010,01,17,14,55,1.50
2010,01,17,14,56,0.50
2010,01,17,14,57,0.00
2010,01,17,14,58,0.10
2010,01,17,14,59,0.00
2010,01,17,15,00,0.00
2010,01,17,15,01,0.20
2010,01,17,15,02,0.10
2010,01,17,15,03,0.00
2010,01,17,15,04,0.00
2010,01,17,15,05,0.00
2010,01,17,15,06,0.00
2010,01,17,15,07,0.00
2010,01,17,15,08,2.20
2010,01,17,15,09,4.70
2010,01,17,15,10,3.70
2010,01,17,15,11,1.50
2010,01,17,15,12,1.30
2010,01,17,15,13,1.30
2010,01,17,15,14,0.20
2010,01,17,15,15,0.70
2010,01,17,15,16,3.50
2010,01,17,15,17,2.40
2010,01,17,15,18,2.80
2010,01,17,15,19,1.80
2010,01,17,15,20,4.10
2010,01,17,15,21,1.80
2010,01,17,15,22,3.40
2010,01,17,15,23,2.60
2010,01,17,15,24,4.00
2010,01,17,15,25,3.20
2010,01,17,15,26,2.30
2010,01,17,15,27,1.50
2010,01,17,15,28,1.50
2010,01,17,15,29,1.40
2010,01,17,15,30,3.00
2010,01,17,15,31,2.70
2010,01,17,15,32,1.80
2010,01,17,15,33,2.80
2010,01,17,15,34,2.50
2010,01,17,15,35,1.20
2010,01,17,15,36,1.50
2010,01,17,15,37,1.70
2010,01,17,15,38,0.90
2010,01,17,15,39,1.80
2010,01,17,15,40,2.60
2010,01,17,15,41,4.00
2010,01,17,15,42,1.50
2010,01,17,15,43,2.80
2010,01,17,15,44,0.60
2010,01,17,15,45,0.20
2010,01,17,15,46,0.90
2010,01,17,15,47,0.00
2010,01,17,15,48,1.40
2010,01,17,15,49,1.10
2010,01,17,15,50,2.20
2010,01,17,15,51,0.60
2010,01,17,15,52,0.80
2010,01,17,15,53,0.20
2010,01,17,15,54,0.00
2010,01,17,15,55,0.00
2010,01,17,15,56,0.00
2010,01,17,15,57,0.00
2010,01,17,15,58,0.00
2010,01,17,15,59,0.00
2010,01,17,16,00,0.00
2010,01,17,16,01,0.00
2010,01,17,16,02,0.20
2010,01,17,16,03,1.30
2010,01,17,16,04,0.90
2010,01,17,16,05,1.50
2010,01,17,16,06,0.70
2010,01,17,16,07,2.50
2010,01,17,16,08,2.70
2010,01,17,16,09,1.80
2010,01,17,16,10,5.20
2010,01,17,16,11,5.00
2010,01,17,16,12,3.50
2010,01,17,16,13,4.50
2010,01,17,16,14,3.90
2010,01,17,16,15,6.60
2010,01,17,16,16,5.30
2010,01,17,16,17,5.60
2010,01,17,16,18,3.70
2010,01,17,16,19,4.90
2010,01,17,16,20,3.30
2010,01,17,16,21,3.30
2010,01,17,16,22,3.10
2010,01,17,16,23,2.00
2010,01,17,16,24,4.30
2010,01,17,16,25,3.20
2010,01,17,16,26,3.30
2010,01,17,16,27,2.30
2010,01,17,16,28,1.30
2010,01,17,16,29,1.90
2010,01,17,16,30,5.20
2010,01,17,16,31,2.70
2010,01,17,16,32,1.20
2010,01,17,16,33,1.30
2010,01,17,16,34,3.10
2010,01,17,16,35,2.30
2010,01,17,16,36,3.10
2010,01,17,16,37,1.20
2010,01,17,16,38,3.30
2010,01,17,16,39,1.50
2010,01,17,16,40,1.70
2010,01,17,16,41,2.20
2010,01,17,16,42,2.50
2010,01,17,16,43,1.90
2010,01,17,16,44,1.60
2010,01,17,16,45,3.40
2010,01,17,16,46,1.70
2010,01,17,16,47,0.00
2010,01,17,16,48,0.00
2010,01,17,16,49,0.00
2010,01,17,16,50,0.00
2010,01,17,16,51,0.00
2010,01,17,16,52,0.00
2010,01,17,16,53,0.00
2010,01,17,16,54,0.10
2010,01,17,16,55,0.30
2010,01,17,16,56,0.00
2010,01,17,16,57,0.00
2010,01,17,16,58,0.10
2010,01,17,16,59,0.00
2010,01,17,17,00,0.00
2010,01,17,17,01,0.00
2010,01,17,17,02,0.00
2010,01,17,17,03,0.00
2010,01,17,17,04,0.00
2010,01,17,17,05,0.00
2010,01,17,17,06,0.00
2010,01,17,17,07,0.00
2010,01,17,17,08,0.00
2010,01,17,17,09,0.00
2010,01,17,17,10,0.00
2010,01,17,17,11,0.00
2010,01,17,17,12,0.00
2010,01,17,17,13,0.00
2010,01,17,17,14,0.00
2010,01,17,17,15,0.00
2010,01,17,17,16,0.00
2010,01,17,17,17,0.00
2010,01,17,17,18,0.30
2010,01,17,17,19,2.30
2010,01,17,17,20,4.10
2010,01,17,17,21,1.80
2010,01,17,17,22,2.20
2010,01,17,17,23,2.00
2010,01,17,17,24,0.40
2010,01,17,17,25,2.00
2010,01,17,17,26,3.90
2010,01,17,17,27,2.80
2010,01,17,17,28,7.20
2010,01,17,17,29,6.60
2010,01,17,17,30,3.80
2010,01,17,17,31,2.60
2010,01,17,17,32,2.20
2010,01,17,17,33,0.00
2010,01,17,17,34,1.40
2010,01,17,17,35,0.60
2010,01,17,17,36,2.80
2010,01,17,17,37,2.00
2010,01,17,17,38,1.40
2010,01,17,17,39,5.00
2010,01,17,17,40,2.70
2010,01,17,17,41,1.00
2010,01,17,17,42,4.20
2010,01,17,17,43,2.70
2010,01,17,17,44,1.50
2010,01,17,17,45,4.90
2010,01,17,17,46,1.20
2010,01,17,17,47,3.00
2010,01,17,17,48,4.90
2010,01,17,17,49,2.70
2010,01,17,17,50,3.90
2010,01,17,17,51,6.60
2010,01,17,17,52,6.30
2010,01,17,17,53,3.10
2010,01,17,17,54,1.80
2010,01,17,17,55,5.20
2010,01,17,17,56,5.10
2010,01,17,17,57,4.10
2010,01,17,17,58,5.10
2010,01,17,17,59,5.90
2010,01,17,18,00,4.70
2010,01,17,18,01,2.50
2010,01,17,18,02,3.50